Precipitable_Water
1.00 0.98 0.98 0.96 0.95 0.93 0.96 0.99 0.99 0.99 0.93 0.80 0.75 0.73 0.70 0.71 0.73 0.78 0.80 0.76 0.71 0.64 0.63 0.64 0.65 0.66 0.67 0.68 0.69 0.68 0.67 0.67 0.70 0.70 0.69 0.66 0.65 0.62 0.63 0.62 0.60 0.59 0.57 0.54 0.58 0.60 0.58 0.57 0.57 0.58 0.64 0.62 0.62 0.61 0.61 0.59 0.58 0.58 0.56 0.55 0.55 0.57 0.57 0.55 0.50 0.45 0.44 0.47 0.45 0.43 0.47 0.51 0.47 0.50 0.50 0.52 0.55 0.54 0.53 0.54 0.54 0.54 0.53 0.57 0.60
1.02 0.99 0.96 0.95 0.93 0.95 0.98 1.00 1.02 1.01 0.95 0.86 0.80 0.75 0.69 0.72 0.75 0.79 0.77 0.77 0.73 0.67 0.62 0.63 0.63 0.64 0.65 0.66 0.69 0.70 0.70 0.71 0.71 0.72 0.71 0.70 0.69 0.70 0.68 0.66 0.64 0.63 0.64 0.61 0.59 0.59 0.58 0.58 0.58 0.60 0.64 0.63 0.65 0.64 0.65 0.65 0.61 0.57 0.56 0.54 0.53 0.54 0.58 0.56 0.52 0.48 0.44 0.47 0.46 0.47 0.49 0.52 0.47 0.51 0.52 0.54 0.54 0.54 0.51 0.53 0.54 0.53 0.54 0.51 0.56
1.06 1.03 1.00 0.98 0.97 0.97 0.97 0.98 0.99 0.98 0.94 0.88 0.78 0.73 0.67 0.69 0.74 0.71 0.75 0.73 0.75 0.72 0.68 0.62 0.64 0.65 0.67 0.69 0.70 0.71 0.72 0.73 0.75 0.75 0.75 0.76 0.77 0.78 0.79 0.78 0.76 0.74 0.73 0.71 0.69 0.68 0.67 0.65 0.63 0.61 0.63 0.64 0.64 0.66 0.69 0.69 0.66 0.67 0.66 0.64 0.63 0.62 0.62 0.62 0.60 0.56 0.54 0.54 0.57 0.54 0.57 0.58 0.58 0.55 0.59 0.61 0.60 0.59 0.57 0.58 0.56 0.55 0.55 0.55 0.51
1.01 1.00 0.99 0.99 1.00 0.99 0.99 0.99 0.99 0.97 0.94 0.91 0.83 0.78 0.71 0.66 0.68 0.71 0.74 0.76 0.71 0.73 0.71 0.70 0.68 0.71 0.71 0.72 0.74 0.74 0.76 0.80 0.83 0.85 0.85 0.86 0.88 0.90 0.91 0.91 0.90 0.90 0.89 0.87 0.83 0.81 0.79 0.78 0.75 0.71 0.69 0.67 0.67 0.69 0.73 0.73 0.71 0.70 0.71 0.71 0.70 0.70 0.71 0.69 0.64 0.60 0.58 0.54 0.58 0.52 0.59 0.62 0.58 0.58 0.58 0.57 0.57 0.57 0.57 0.57 0.57 0.57 0.59 0.58 0.56
0.96 0.96 0.96 0.96 0.99 1.00 1.00 1.02 1.01 0.99 0.95 0.93 0.90 0.86 0.81 0.71 0.69 0.70 0.75 0.78 0.79 0.75 0.76 0.76 0.74 0.76 0.77 0.75 0.75 0.77 0.81 0.84 0.86 0.90 0.94 0.96 0.95 0.96 0.97 0.97 0.98 0.97 0.98 0.98 0.97 0.95 0.92 0.90 0.89 0.84 0.78 0.75 0.71 0.73 0.73 0.74 0.70 0.71 0.69 0.70 0.70 0.73 0.73 0.68 0.66 0.65 0.62 0.59 0.59 0.61 0.62 0.58 0.59 0.60 0.60 0.57 0.56 0.57 0.58 0.57 0.57 0.57 0.58 0.60 0.57
0.96 0.95 0.94 0.94 0.95 0.97 1.00 1.01 1.01 1.01 0.97 0.96 0.94 0.92 0.91 0.87 0.80 0.74 0.75 0.77 0.81 0.83 0.82 0.82 0.81 0.83 0.85 0.85 0.83 0.81 0.81 0.85 0.90 0.93 0.97 0.99 0.99 0.99 1.00 0.99 0.99 0.99 1.00 1.01 1.01 1.01 1.01 1.00 0.99 0.96 0.90 0.86 0.84 0.81 0.80 0.78 0.74 0.71 0.69 0.66 0.67 0.74 0.74 0.73 0.72 0.70 0.67 0.65 0.65 0.64 0.66 0.62 0.60 0.62 0.60 0.61 0.60 0.59 0.60 0.60 0.60 0.59 0.58 0.57 0.55
0.96 0.96 0.95 0.94 0.94 0.95 0.98 0.99 0.99 0.98 0.98 0.96 0.96 0.94 0.96 0.96 0.91 0.82 0.78 0.77 0.79 0.82 0.86 0.88 0.89 0.88 0.89 0.92 0.92 0.91 0.91 0.93 0.92 0.92 0.93 0.97 0.99 1.00 1.00 0.97 0.96 0.98 1.00 1.02 1.02 1.01 1.02 1.02 1.02 1.01 0.96 0.93 0.92 0.94 0.92 0.89 0.84 0.80 0.77 0.79 0.76 0.77 0.77 0.75 0.75 0.74 0.72 0.70 0.69 0.69 0.66 0.66 0.66 0.62 0.61 0.65 0.64 0.61 0.58 0.57 0.56 0.59 0.60 0.58 0.54
0.97 0.98 0.98 0.98 0.98 0.99 1.02 1.04 1.03 1.02 1.01 1.00 0.98 0.96 0.96 0.97 0.97 0.94 0.89 0.81 0.81 0.82 0.83 0.83 0.87 0.90 0.92 0.91 0.91 0.94 0.98 0.98 0.97 0.97 0.96 0.96 0.97 1.00 1.03 1.02 1.00 0.98 0.98 0.97 0.98 0.98 0.99 0.99 0.98 0.98 0.97 0.98 0.97 0.96 0.94 0.91 0.91 0.91 0.88 0.84 0.84 0.82 0.79 0.79 0.79 0.77 0.75 0.73 0.70 0.67 0.67 0.68 0.69 0.72 0.72 0.70 0.66 0.63 0.62 0.58 0.53 0.53 0.54 0.54 0.53
0.91 0.91 0.91 0.92 0.97 0.99 1.02 1.02 1.02 1.01 1.00 1.01 1.01 1.03 1.03 1.01 0.99 0.98 0.96 0.91 0.88 0.85 0.85 0.89 0.91 0.91 0.93 0.92 0.90 0.91 0.93 0.95 0.98 1.00 1.00 0.99 1.00 1.02 1.04 1.04 1.02 1.00 0.99 0.98 0.98 0.97 0.96 0.95 0.94 0.95 0.97 0.95 0.94 0.93 0.92 0.91 0.88 0.82 0.81 0.79 0.79 0.79 0.78 0.77 0.76 0.76 0.75 0.74 0.70 0.70 0.68 0.66 0.65 0.66 0.65 0.63 0.59 0.56 0.59 0.59 0.54 0.52 0.50 0.46 0.44
0.83 0.82 0.81 0.83 0.87 0.90 0.92 0.94 0.95 0.96 0.96 0.96 0.97 0.98 1.00 1.03 1.02 0.99 0.97 0.94 0.92 0.89 0.88 0.90 0.93 0.94 0.93 0.94 0.96 0.95 0.93 0.94 0.97 0.94 0.97 1.00 1.01 1.03 1.04 1.03 1.01 0.99 0.96 0.95 0.96 0.97 0.96 0.96 0.96 0.94 0.93 0.90 0.87 0.85 0.85 0.86 0.88 0.84 0.83 0.81 0.77 0.75 0.75 0.76 0.75 0.74 0.72 0.69 0.66 0.65 0.62 0.61 0.61 0.61 0.60 0.61 0.62 0.62 0.59 0.57 0.51 0.49 0.47 0.42 0.40
0.80 0.79 0.79 0.80 0.83 0.85 0.87 0.89 0.92 0.92 0.92 0.91 0.89 0.90 0.91 0.96 0.97 0.95 0.94 0.94 0.93 0.94 0.92 0.91 0.91 0.92 0.93 0.94 0.97 0.97 0.96 0.97 0.95 0.95 0.97 0.97 1.00 1.01 0.99 1.00 0.99 0.94 0.92 0.90 0.90 0.92 0.95 0.95 0.95 0.93 0.89 0.86 0.84 0.84 0.85 0.87 0.86 0.82 0.81 0.79 0.79 0.78 0.76 0.74 0.72 0.73 0.69 0.66 0.64 0.62 0.59 0.60 0.62 0.61 0.58 0.57 0.59 0.56 0.54 0.52 0.48 0.45 0.41 0.36 0.33
0.76 0.77 0.79 0.81 0.82 0.82 0.83 0.84 0.84 0.87 0.90 0.90 0.90 0.89 0.89 0.90 0.91 0.92 0.93 0.93 0.96 0.98 0.97 0.99 1.01 1.01 0.99 0.99 0.98 0.99 1.00 1.01 0.97 0.97 0.98 0.98 0.97 0.98 0.99 0.97 0.94 0.92 0.91 0.91 0.90 0.90 0.91 0.92 0.92 0.91 0.89 0.86 0.84 0.84 0.83 0.82 0.79 0.74 0.71 0.70 0.71 0.72 0.74 0.70 0.67 0.65 0.63 0.60 0.59 0.59 0.58 0.57 0.56 0.57 0.55 0.54 0.53 0.52 0.51 0.48 0.43 0.41 0.38 0.35 0.34
0.61 0.65 0.70 0.74 0.77 0.81 0.82 0.82 0.83 0.84 0.84 0.85 0.89 0.91 0.92 0.92 0.92 0.93 0.93 0.94 0.97 0.96 0.93 1.05 1.03 1.02 0.99 0.96 0.96 1.00 1.03 1.03 0.98 0.97 0.98 0.97 0.96 0.96 0.97 0.93 0.88 0.85 0.85 0.83 0.83 0.83 0.85 0.86 0.86 0.86 0.82 0.77 0.77 0.76 0.74 0.71 0.70 0.69 0.66 0.64 0.62 0.62 0.63 0.66 0.66 0.66 0.63 0.59 0.57 0.57 0.57 0.56 0.52 0.53 0.55 0.52 0.52 0.48 0.46 0.43 0.41 0.40 0.38 0.35 0.34
0.58 0.59 0.61 0.63 0.65 0.66 0.67 0.70 0.74 0.79 0.84 0.85 0.86 0.87 0.88 0.90 0.93 0.96 0.95 0.93 0.92 0.91 0.93 0.98 1.02 0.99 0.99 0.95 0.96 0.99 0.99 0.99 0.96 0.97 0.98 0.98 0.97 0.92 0.91 0.85 0.80 0.75 0.72 0.69 0.67 0.64 0.65 0.66 0.66 0.67 0.74 0.72 0.69 0.70 0.68 0.65 0.62 0.60 0.58 0.57 0.57 0.57 0.59 0.60 0.60 0.59 0.59 0.58 0.55 0.52 0.57 0.55 0.51 0.54 0.56 0.54 0.49 0.45 0.43 0.40 0.40 0.38 0.35 0.33 0.34
0.58 0.58 0.58 0.60 0.59 0.59 0.58 0.57 0.60 0.62 0.70 0.78 0.83 0.85 0.87 0.90 0.91 0.91 0.91 0.90 0.87 0.87 0.87 0.90 0.91 0.92 0.92 0.96 0.99 1.01 1.00 0.96 0.94 0.96 0.97 0.95 0.91 0.84 0.78 0.71 0.63 0.58 0.57 0.55 0.52 0.53 0.54 0.53 0.53 0.53 0.60 0.66 0.69 0.66 0.61 0.59 0.57 0.55 0.52 0.55 0.58 0.60 0.62 0.62 0.60 0.59 0.57 0.56 0.58 0.59 0.59 0.59 0.57 0.55 0.54 0.53 0.51 0.47 0.45 0.41 0.40 0.38 0.37 0.39 0.41
0.60 0.60 0.58 0.59 0.59 0.59 0.58 0.59 0.59 0.60 0.61 0.62 0.65 0.68 0.73 0.76 0.76 0.79 0.79 0.80 0.80 0.81 0.81 0.82 0.84 0.89 1.00 1.04 1.04 1.01 0.97 0.94 0.92 0.92 0.90 0.84 0.77 0.68 0.64 0.59 0.55 0.56 0.54 0.53 0.55 0.57 0.57 0.58 0.56 0.58 0.58 0.59 0.58 0.60 0.59 0.57 0.55 0.54 0.55 0.57 0.57 0.58 0.56 0.57 0.58 0.59 0.60 0.60 0.59 0.59 0.58 0.56 0.54 0.52 0.51 0.49 0.46 0.45 0.44 0.42 0.40 0.38 0.37 0.34 0.32
0.59 0.61 0.61 0.62 0.62 0.61 0.61 0.59 0.59 0.59 0.59 0.58 0.59 0.62 0.64 0.65 0.69 0.72 0.70 0.71 0.73 0.74 0.77 0.80 0.83 0.85 0.86 0.96 0.97 0.93 0.87 0.83 0.78 0.74 0.71 0.66 0.62 0.62 0.63 0.59 0.60 0.56 0.56 0.56 0.57 0.55 0.54 0.54 0.58 0.59 0.58 0.58 0.59 0.60 0.61 0.59 0.58 0.57 0.57 0.56 0.57 0.56 0.56 0.57 0.56 0.56 0.56 0.56 0.55 0.53 0.52 0.51 0.50 0.48 0.45 0.44 0.42 0.40 0.37 0.33 0.32 0.34 0.32 0.29 0.29
0.55 0.56 0.58 0.61 0.62 0.64 0.62 0.60 0.58 0.57 0.55 0.52 0.53 0.57 0.61 0.65 0.68 0.68 0.68 0.66 0.66 0.67 0.69 0.69 0.72 0.73 0.73 0.74 0.74 0.73 0.73 0.71 0.68 0.65 0.63 0.63 0.62 0.66 0.64 0.64 0.65 0.61 0.58 0.59 0.59 0.56 0.55 0.56 0.59 0.62 0.61 0.59 0.59 0.61 0.61 0.62 0.61 0.60 0.58 0.57 0.54 0.54 0.55 0.56 0.56 0.55 0.53 0.53 0.52 0.51 0.49 0.47 0.45 0.44 0.42 0.40 0.39 0.37 0.34 0.30 0.32 0.33 0.30 0.30 0.29
0.53 0.54 0.56 0.58 0.59 0.60 0.60 0.59 0.58 0.57 0.57 0.57 0.57 0.56 0.56 0.57 0.61 0.64 0.65 0.64 0.64 0.62 0.58 0.58 0.57 0.58 0.57 0.53 0.49 0.54 0.52 0.53 0.58 0.61 0.63 0.64 0.63 0.63 0.65 0.67 0.66 0.64 0.61 0.59 0.60 0.58 0.56 0.56 0.58 0.60 0.59 0.57 0.57 0.58 0.58 0.59 0.61 0.59 0.57 0.55 0.52 0.51 0.52 0.54 0.53 0.52 0.52 0.51 0.50 0.49 0.48 0.47 0.46 0.44 0.44 0.41 0.39 0.37 0.36 0.35 0.36 0.34 0.32 0.31 0.31
0.50 0.51 0.52 0.53 0.55 0.55 0.55 0.54 0.55 0.55 0.55 0.57 0.58 0.59 0.60 0.58 0.56 0.55 0.55 0.55 0.53 0.51 0.51 0.51 0.50 0.49 0.48 0.46 0.44 0.47 0.45 0.43 0.44 0.47 0.54 0.59 0.61 0.63 0.66 0.66 0.66 0.65 0.62 0.59 0.57 0.57 0.56 0.56 0.55 0.54 0.53 0.52 0.52 0.52 0.53 0.59 0.59 0.58 0.56 0.52 0.50 0.49 0.53 0.52 0.51 0.50 0.49 0.48 0.47 0.48 0.47 0.47 0.47 0.46 0.45 0.44 0.42 0.40 0.40 0.40 0.39 0.37 0.34 0.32 0.32
0.47 0.47 0.48 0.48 0.49 0.51 0.52 0.53 0.53 0.52 0.54 0.56 0.58 0.56 0.57 0.57 0.57 0.54 0.51 0.51 0.50 0.49 0.49 0.51 0.51 0.50 0.51 0.51 0.51 0.53 0.53 0.49 0.47 0.47 0.50 0.52 0.58 0.59 0.63 0.66 0.69 0.66 0.63 0.58 0.58 0.55 0.54 0.55 0.56 0.55 0.55 0.54 0.53 0.52 0.52 0.52 0.53 0.54 0.53 0.53 0.52 0.52 0.50 0.49 0.48 0.46 0.45 0.46 0.47 0.46 0.45 0.43 0.42 0.41 0.40 0.40 0.39 0.39 0.39 0.39 0.39 0.37 0.34 0.32 0.30
0.44 0.45 0.46 0.47 0.47 0.48 0.49 0.52 0.53 0.53 0.53 0.53 0.55 0.58 0.58 0.57 0.58 0.58 0.57 0.55 0.54 0.52 0.52 0.52 0.51 0.51 0.52 0.53 0.53 0.52 0.52 0.53 0.53 0.53 0.53 0.56 0.57 0.60 0.62 0.66 0.65 0.63 0.62 0.60 0.59 0.57 0.57 0.56 0.55 0.54 0.53 0.52 0.51 0.51 0.50 0.50 0.50 0.51 0.49 0.48 0.48 0.47 0.47 0.46 0.48 0.48 0.46 0.44 0.42 0.39 0.37 0.37 0.36 0.36 0.36 0.36 0.37 0.37 0.38 0.38 0.37 0.36 0.36 0.35 0.33
0.42 0.42 0.43 0.43 0.45 0.46 0.48 0.48 0.50 0.53 0.55 0.55 0.54 0.55 0.59 0.60 0.58 0.58 0.58 0.59 0.58 0.57 0.53 0.52 0.51 0.51 0.52 0.53 0.56 0.55 0.54 0.53 0.54 0.55 0.56 0.58 0.59 0.63 0.62 0.61 0.61 0.62 0.61 0.61 0.60 0.58 0.58 0.57 0.54 0.52 0.51 0.49 0.49 0.49 0.49 0.48 0.48 0.47 0.47 0.47 0.46 0.45 0.45 0.46 0.44 0.41 0.40 0.38 0.36 0.34 0.35 0.35 0.35 0.34 0.35 0.35 0.36 0.36 0.36 0.36 0.36 0.36 0.36 0.36 0.37
0.42 0.42 0.41 0.41 0.41 0.43 0.45 0.47 0.48 0.49 0.51 0.55 0.55 0.55 0.56 0.60 0.62 0.60 0.59 0.59 0.58 0.58 0.58 0.58 0.58 0.55 0.52 0.51 0.51 0.53 0.55 0.54 0.55 0.57 0.58 0.59 0.62 0.62 0.64 0.65 0.65 0.65 0.66 0.64 0.63 0.59 0.57 0.54 0.51 0.50 0.49 0.50 0.49 0.49 0.49 0.48 0.47 0.46 0.45 0.45 0.44 0.42 0.42 0.40 0.39 0.38 0.35 0.34 0.33 0.33 0.33 0.34 0.34 0.34 0.34 0.34 0.34 0.35 0.35 0.35 0.35 0.35 0.35 0.36 0.37
0.36 0.36 0.37 0.38 0.39 0.40 0.42 0.44 0.47 0.48 0.48 0.49 0.51 0.52 0.53 0.56 0.58 0.62 0.61 0.58 0.58 0.58 0.58 0.59 0.59 0.60 0.63 0.59 0.58 0.59 0.59 0.59 0.58 0.59 0.60 0.61 0.61 0.63 0.64 0.64 0.65 0.66 0.64 0.63 0.61 0.58 0.55 0.52 0.50 0.50 0.50 0.49 0.49 0.49 0.49 0.48 0.46 0.45 0.43 0.41 0.39 0.41 0.38 0.36 0.35 0.34 0.33 0.32 0.32 0.32 0.32 0.33 0.33 0.33 0.34 0.34 0.34 0.35 0.34 0.34 0.36 0.36 0.37 0.37 0.38
0.32 0.32 0.32 0.32 0.33 0.35 0.35 0.37 0.40 0.43 0.46 0.47 0.47 0.50 0.51 0.53 0.55 0.58 0.61 0.60 0.59 0.57 0.58 0.59 0.58 0.61 0.62 0.58 0.58 0.60 0.62 0.62 0.61 0.61 0.62 0.62 0.61 0.60 0.60 0.61 0.60 0.61 0.60 0.59 0.58 0.55 0.52 0.51 0.51 0.51 0.51 0.51 0.51 0.51 0.48 0.46 0.44 0.42 0.40 0.39 0.42 0.40 0.37 0.35 0.34 0.33 0.32 0.32 0.31 0.30 0.31 0.32 0.33 0.33 0.34 0.34 0.34 0.33 0.34 0.34 0.34 0.35 0.36 0.35 0.34
0.28 0.27 0.27 0.28 0.29 0.28 0.28 0.29 0.31 0.34 0.39 0.43 0.45 0.46 0.47 0.49 0.50 0.53 0.55 0.58 0.58 0.57 0.57 0.57 0.58 0.58 0.59 0.56 0.56 0.56 0.57 0.59 0.61 0.62 0.63 0.62 0.60 0.59 0.58 0.58 0.58 0.58 0.57 0.55 0.53 0.51 0.51 0.52 0.52 0.52 0.52 0.52 0.51 0.48 0.45 0.44 0.43 0.42 0.43 0.43 0.41 0.39 0.37 0.34 0.32 0.32 0.32 0.31 0.31 0.31 0.32 0.33 0.33 0.33 0.33 0.33 0.33 0.34 0.35 0.35 0.34 0.34 0.35 0.35 0.34
0.27 0.27 0.27 0.28 0.28 0.28 0.28 0.28 0.27 0.26 0.28 0.32 0.35 0.39 0.43 0.45 0.47 0.49 0.52 0.53 0.54 0.53 0.52 0.52 0.56 0.55 0.55 0.57 0.56 0.55 0.56 0.59 0.60 0.58 0.58 0.58 0.57 0.57 0.56 0.55 0.56 0.55 0.53 0.53 0.52 0.51 0.51 0.50 0.50 0.50 0.48 0.47 0.46 0.46 0.46 0.44 0.42 0.40 0.40 0.40 0.39 0.38 0.35 0.33 0.32 0.33 0.33 0.33 0.32 0.32 0.32 0.32 0.31 0.32 0.33 0.33 0.34 0.35 0.37 0.36 0.35 0.35 0.36 0.36 0.35
0.32 0.31 0.30 0.30 0.29 0.29 0.29 0.29 0.29 0.29 0.28 0.27 0.28 0.32 0.36 0.41 0.44 0.46 0.52 0.56 0.57 0.55 0.53 0.52 0.53 0.53 0.55 0.56 0.56 0.56 0.55 0.55 0.56 0.57 0.56 0.54 0.53 0.52 0.52 0.53 0.54 0.54 0.53 0.52 0.51 0.49 0.48 0.47 0.47 0.47 0.46 0.44 0.43 0.42 0.42 0.41 0.40 0.40 0.39 0.37 0.36 0.35 0.33 0.31 0.30 0.30 0.31 0.31 0.30 0.30 0.30 0.31 0.32 0.34 0.34 0.34 0.35 0.36 0.38 0.38 0.39 0.38 0.39 0.39 0.38
0.34 0.34 0.34 0.33 0.32 0.32 0.31 0.31 0.32 0.32 0.30 0.29 0.28 0.29 0.36 0.37 0.40 0.41 0.45 0.52 0.58 0.62 0.59 0.56 0.56 0.56 0.55 0.54 0.57 0.57 0.53 0.55 0.55 0.52 0.51 0.52 0.54 0.54 0.55 0.54 0.52 0.50 0.50 0.49 0.47 0.44 0.44 0.44 0.44 0.43 0.42 0.40 0.38 0.36 0.36 0.36 0.36 0.35 0.34 0.32 0.33 0.32 0.29 0.29 0.29 0.29 0.29 0.29 0.29 0.30 0.31 0.32 0.32 0.33 0.34 0.35 0.36 0.38 0.40 0.40 0.40 0.41 0.40 0.40 0.41
0.36 0.36 0.36 0.35 0.36 0.35 0.33 0.32 0.33 0.34 0.34 0.33 0.32 0.29 0.31 0.34 0.33 0.33 0.35 0.42 0.47 0.51 0.55 0.57 0.57 0.57 0.56 0.58 0.64 0.59 0.58 0.54 0.49 0.49 0.50 0.53 0.53 0.53 0.52 0.51 0.51 0.50 0.48 0.46 0.44 0.43 0.43 0.41 0.40 0.38 0.37 0.35 0.34 0.34 0.34 0.34 0.33 0.32 0.32 0.32 0.31 0.29 0.27 0.28 0.28 0.27 0.28 0.29 0.30 0.31 0.32 0.33 0.33 0.35 0.35 0.37 0.38 0.39 0.41 0.43 0.43 0.43 0.44 0.44 0.45
0.39 0.39 0.39 0.40 0.40 0.39 0.38 0.37 0.35 0.34 0.34 0.35 0.35 0.33 0.32 0.31 0.34 0.32 0.33 0.36 0.41 0.45 0.49 0.53 0.56 0.56 0.58 0.60 0.59 0.57 0.56 0.53 0.49 0.49 0.50 0.51 0.51 0.51 0.50 0.49 0.48 0.47 0.47 0.46 0.42 0.41 0.40 0.38 0.36 0.34 0.34 0.34 0.34 0.34 0.34 0.33 0.32 0.31 0.31 0.29 0.28 0.28 0.27 0.27 0.26 0.28 0.29 0.30 0.30 0.32 0.33 0.34 0.35 0.37 0.38 0.39 0.40 0.41 0.42 0.43 0.45 0.46 0.47 0.48 0.48
0.43 0.43 0.44 0.44 0.44 0.44 0.43 0.41 0.39 0.38 0.36 0.35 0.35 0.35 0.34 0.32 0.30 0.33 0.33 0.35 0.38 0.42 0.46 0.49 0.51 0.52 0.54 0.58 0.60 0.57 0.56 0.51 0.49 0.48 0.48 0.48 0.48 0.48 0.48 0.48 0.48 0.47 0.46 0.44 0.41 0.39 0.38 0.36 0.34 0.34 0.33 0.33 0.33 0.34 0.34 0.34 0.32 0.31 0.30 0.29 0.28 0.28 0.28 0.27 0.26 0.28 0.29 0.30 0.32 0.33 0.35 0.36 0.37 0.39 0.41 0.42 0.43 0.43 0.45 0.46 0.48 0.49 0.49 0.48 0.48
0.46 0.45 0.44 0.44 0.44 0.44 0.45 0.45 0.45 0.43 0.42 0.40 0.38 0.37 0.36 0.35 0.34 0.34 0.37 0.34 0.34 0.38 0.44 0.48 0.51 0.55 0.54 0.52 0.54 0.56 0.54 0.51 0.51 0.50 0.51 0.50 0.50 0.49 0.48 0.47 0.47 0.46 0.43 0.41 0.39 0.38 0.37 0.35 0.35 0.34 0.35 0.35 0.35 0.35 0.34 0.33 0.32 0.31 0.30 0.30 0.29 0.28 0.25 0.25 0.26 0.27 0.29 0.31 0.33 0.35 0.36 0.37 0.39 0.41 0.43 0.44 0.46 0.47 0.47 0.48 0.49 0.48 0.48 0.48 0.47
0.44 0.43 0.43 0.43 0.42 0.42 0.43 0.44 0.45 0.47 0.46 0.44 0.42 0.40 0.38 0.39 0.39 0.36 0.38 0.39 0.33 0.34 0.37 0.43 0.48 0.54 0.52 0.51 0.54 0.56 0.57 0.55 0.56 0.56 0.54 0.52 0.50 0.49 0.49 0.46 0.43 0.42 0.43 0.43 0.41 0.39 0.36 0.35 0.35 0.36 0.36 0.35 0.35 0.34 0.33 0.33 0.31 0.30 0.30 0.29 0.28 0.25 0.23 0.24 0.25 0.28 0.30 0.32 0.34 0.35 0.37 0.39 0.41 0.44 0.45 0.46 0.47 0.47 0.48 0.48 0.49 0.49 0.48 0.48 0.48
0.43 0.42 0.42 0.42 0.42 0.43 0.43 0.43 0.44 0.44 0.45 0.48 0.47 0.45 0.43 0.41 0.40 0.41 0.40 0.43 0.40 0.40 0.42 0.44 0.45 0.49 0.51 0.51 0.54 0.56 0.57 0.58 0.57 0.54 0.51 0.48 0.48 0.49 0.47 0.46 0.44 0.43 0.44 0.45 0.43 0.41 0.39 0.38 0.38 0.37 0.38 0.37 0.35 0.35 0.34 0.33 0.32 0.31 0.30 0.28 0.26 0.24 0.23 0.24 0.26 0.29 0.30 0.32 0.34 0.35 0.38 0.40 0.43 0.46 0.48 0.49 0.49 0.49 0.49 0.49 0.49 0.49 0.49 0.49 0.50
0.43 0.43 0.43 0.43 0.44 0.45 0.45 0.45 0.45 0.45 0.45 0.47 0.49 0.48 0.46 0.43 0.41 0.41 0.41 0.40 0.41 0.39 0.38 0.40 0.42 0.43 0.46 0.51 0.52 0.55 0.58 0.58 0.56 0.54 0.51 0.50 0.49 0.47 0.44 0.42 0.42 0.44 0.44 0.43 0.42 0.42 0.41 0.39 0.40 0.39 0.39 0.37 0.37 0.36 0.34 0.32 0.31 0.30 0.29 0.27 0.25 0.23 0.23 0.25 0.27 0.29 0.30 0.32 0.33 0.35 0.38 0.41 0.44 0.47 0.48 0.48 0.49 0.49 0.50 0.50 0.50 0.50 0.50 0.51 0.51
0.43 0.43 0.43 0.43 0.45 0.47 0.47 0.47 0.48 0.47 0.46 0.46 0.48 0.49 0.48 0.45 0.43 0.41 0.41 0.41 0.39 0.36 0.39 0.38 0.38 0.43 0.42 0.44 0.49 0.53 0.54 0.56 0.55 0.52 0.49 0.50 0.47 0.42 0.41 0.42 0.43 0.43 0.44 0.44 0.42 0.41 0.40 0.40 0.40 0.39 0.39 0.39 0.37 0.35 0.33 0.31 0.30 0.29 0.28 0.26 0.24 0.23 0.23 0.26 0.28 0.30 0.30 0.31 0.32 0.35 0.38 0.42 0.45 0.48 0.49 0.48 0.48 0.49 0.50 0.51 0.51 0.51 0.51 0.51 0.51
0.44 0.44 0.44 0.43 0.44 0.47 0.49 0.49 0.48 0.48 0.47 0.47 0.47 0.47 0.48 0.47 0.44 0.41 0.39 0.41 0.40 0.38 0.40 0.39 0.40 0.43 0.45 0.49 0.51 0.52 0.51 0.48 0.47 0.44 0.44 0.42 0.42 0.40 0.41 0.40 0.39 0.39 0.41 0.41 0.41 0.41 0.40 0.40 0.39 0.39 0.39 0.37 0.36 0.35 0.32 0.30 0.29 0.28 0.27 0.25 0.23 0.22 0.24 0.27 0.28 0.29 0.30 0.30 0.31 0.35 0.38 0.42 0.46 0.48 0.49 0.48 0.48 0.50 0.51 0.51 0.52 0.52 0.51 0.50 0.50
0.43 0.44 0.44 0.45 0.45 0.46 0.48 0.48 0.48 0.48 0.47 0.47 0.47 0.47 0.47 0.48 0.45 0.41 0.39 0.39 0.40 0.40 0.39 0.38 0.39 0.44 0.47 0.49 0.50 0.50 0.47 0.48 0.46 0.45 0.42 0.40 0.39 0.38 0.39 0.37 0.37 0.36 0.37 0.40 0.41 0.41 0.40 0.39 0.39 0.38 0.37 0.36 0.35 0.32 0.30 0.29 0.28 0.27 0.26 0.23 0.22 0.23 0.25 0.27 0.28 0.29 0.29 0.30 0.31 0.34 0.37 0.41 0.45 0.47 0.48 0.48 0.49 0.50 0.51 0.51 0.52 0.52 0.52 0.51 0.51
0.43 0.44 0.44 0.46 0.47 0.48 0.48 0.48 0.48 0.48 0.48 0.47 0.47 0.47 0.48 0.48 0.46 0.42 0.40 0.41 0.42 0.41 0.40 0.39 0.43 0.44 0.46 0.49 0.50 0.47 0.49 0.46 0.48 0.47 0.45 0.42 0.41 0.41 0.40 0.40 0.39 0.39 0.41 0.41 0.42 0.42 0.41 0.39 0.38 0.37 0.36 0.34 0.32 0.31 0.29 0.28 0.27 0.25 0.24 0.23 0.23 0.23 0.25 0.27 0.28 0.29 0.29 0.29 0.31 0.34 0.36 0.39 0.43 0.45 0.46 0.47 0.49 0.50 0.51 0.52 0.52 0.52 0.52 0.52 0.51
0.43 0.43 0.43 0.44 0.46 0.48 0.48 0.48 0.48 0.48 0.48 0.48 0.48 0.48 0.49 0.48 0.46 0.42 0.41 0.40 0.40 0.42 0.42 0.40 0.40 0.43 0.48 0.50 0.50 0.49 0.47 0.46 0.47 0.44 0.45 0.47 0.46 0.45 0.44 0.42 0.42 0.42 0.43 0.44 0.44 0.42 0.39 0.37 0.36 0.36 0.33 0.31 0.30 0.29 0.28 0.26 0.25 0.24 0.23 0.22 0.22 0.24 0.24 0.26 0.28 0.29 0.29 0.29 0.31 0.33 0.35 0.37 0.39 0.43 0.45 0.47 0.48 0.49 0.50 0.51 0.52 0.52 0.52 0.51 0.51
0.44 0.43 0.43 0.43 0.42 0.43 0.46 0.48 0.49 0.48 0.48 0.48 0.48 0.49 0.50 0.48 0.45 0.41 0.40 0.40 0.40 0.43 0.43 0.42 0.40 0.42 0.44 0.47 0.47 0.47 0.47 0.45 0.42 0.42 0.43 0.46 0.47 0.46 0.44 0.42 0.42 0.44 0.46 0.47 0.45 0.41 0.37 0.36 0.36 0.34 0.32 0.31 0.29 0.28 0.27 0.26 0.24 0.23 0.22 0.21 0.22 0.22 0.24 0.26 0.27 0.29 0.30 0.30 0.30 0.32 0.34 0.35 0.37 0.39 0.42 0.45 0.47 0.48 0.49 0.50 0.51 0.52 0.52 0.52 0.52
0.44 0.44 0.43 0.42 0.42 0.42 0.43 0.45 0.48 0.49 0.49 0.49 0.49 0.50 0.49 0.47 0.43 0.41 0.40 0.40 0.39 0.44 0.44 0.44 0.44 0.42 0.40 0.41 0.42 0.42 0.41 0.39 0.39 0.41 0.45 0.46 0.46 0.45 0.44 0.45 0.47 0.48 0.47 0.45 0.42 0.39 0.38 0.36 0.33 0.32 0.32 0.31 0.29 0.27 0.27 0.26 0.24 0.23 0.22 0.21 0.21 0.21 0.23 0.25 0.26 0.28 0.29 0.29 0.30 0.31 0.33 0.34 0.36 0.37 0.39 0.42 0.45 0.46 0.47 0.49 0.50 0.51 0.52 0.52 0.53
0.44 0.43 0.43 0.42 0.41 0.41 0.41 0.41 0.43 0.46 0.48 0.48 0.47 0.47 0.46 0.44 0.43 0.43 0.42 0.43 0.42 0.43 0.50 0.45 0.42 0.40 0.39 0.38 0.38 0.38 0.38 0.36 0.39 0.44 0.46 0.46 0.46 0.48 0.49 0.49 0.48 0.46 0.44 0.42 0.39 0.38 0.37 0.34 0.32 0.32 0.31 0.29 0.27 0.27 0.26 0.25 0.23 0.23 0.23 0.22 0.20 0.20 0.21 0.23 0.26 0.28 0.30 0.30 0.30 0.30 0.32 0.33 0.34 0.35 0.37 0.39 0.42 0.44 0.45 0.47 0.48 0.50 0.51 0.52 0.52
0.46 0.44 0.43 0.43 0.42 0.41 0.41 0.41 0.41 0.41 0.42 0.43 0.44 0.43 0.43 0.43 0.43 0.44 0.44 0.46 0.44 0.44 0.46 0.45 0.44 0.42 0.40 0.39 0.40 0.42 0.43 0.44 0.47 0.48 0.47 0.47 0.47 0.48 0.48 0.47 0.46 0.44 0.42 0.39 0.37 0.36 0.34 0.33 0.33 0.32 0.29 0.27 0.26 0.27 0.26 0.25 0.24 0.24 0.23 0.23 0.23 0.22 0.22 0.24 0.26 0.28 0.29 0.30 0.30 0.30 0.31 0.33 0.34 0.35 0.36 0.37 0.39 0.42 0.43 0.45 0.47 0.48 0.49 0.51 0.52
0.48 0.47 0.46 0.45 0.43 0.43 0.42 0.42 0.42 0.40 0.39 0.40 0.40 0.41 0.42 0.42 0.42 0.43 0.43 0.44 0.43 0.43 0.42 0.43 0.43 0.43 0.42 0.42 0.42 0.44 0.45 0.45 0.44 0.45 0.46 0.46 0.47 0.48 0.47 0.46 0.44 0.42 0.40 0.38 0.35 0.34 0.34 0.34 0.33 0.31 0.28 0.27 0.26 0.25 0.25 0.25 0.25 0.25 0.25 0.25 0.24 0.23 0.23 0.23 0.25 0.28 0.29 0.30 0.30 0.30 0.31 0.32 0.33 0.34 0.36 0.37 0.38 0.39 0.41 0.42 0.44 0.46 0.48 0.49 0.51
0.48 0.48 0.47 0.47 0.47 0.46 0.46 0.45 0.43 0.42 0.41 0.39 0.39 0.39 0.40 0.41 0.42 0.43 0.45 0.46 0.43 0.42 0.42 0.44 0.44 0.43 0.43 0.43 0.43 0.43 0.42 0.43 0.43 0.44 0.46 0.47 0.48 0.48 0.47 0.44 0.42 0.40 0.38 0.36 0.34 0.34 0.34 0.34 0.33 0.31 0.29 0.27 0.26 0.25 0.25 0.26 0.26 0.26 0.26 0.26 0.25 0.24 0.24 0.23 0.25 0.28 0.30 0.30 0.30 0.30 0.30 0.31 0.32 0.34 0.36 0.36 0.36 0.37 0.38 0.39 0.42 0.44 0.46 0.48 0.50
0.47 0.48 0.47 0.47 0.47 0.47 0.47 0.48 0.48 0.47 0.42 0.40 0.40 0.40 0.40 0.40 0.41 0.42 0.43 0.43 0.43 0.43 0.44 0.44 0.44 0.45 0.45 0.44 0.44 0.45 0.46 0.46 0.46 0.47 0.48 0.49 0.48 0.47 0.44 0.43 0.41 0.39 0.37 0.34 0.33 0.34 0.34 0.34 0.33 0.31 0.28 0.27 0.26 0.25 0.26 0.26 0.27 0.27 0.27 0.27 0.26 0.25 0.25 0.24 0.25 0.27 0.29 0.29 0.30 0.31 0.31 0.31 0.32 0.34 0.35 0.36 0.36 0.37 0.37 0.39 0.40 0.41 0.43 0.46 0.48
0.44 0.45 0.47 0.47 0.47 0.47 0.49 0.49 0.49 0.49 0.48 0.45 0.42 0.40 0.41 0.41 0.41 0.42 0.43 0.44 0.45 0.46 0.47 0.47 0.47 0.48 0.48 0.47 0.47 0.48 0.49 0.48 0.48 0.49 0.48 0.47 0.46 0.45 0.42 0.41 0.40 0.38 0.35 0.33 0.33 0.34 0.34 0.34 0.32 0.30 0.28 0.27 0.27 0.27 0.28 0.28 0.29 0.29 0.30 0.29 0.28 0.27 0.26 0.25 0.25 0.27 0.28 0.29 0.29 0.30 0.30 0.30 0.32 0.33 0.34 0.35 0.35 0.36 0.36 0.37 0.39 0.40 0.41 0.43 0.45
0.42 0.43 0.43 0.45 0.47 0.48 0.48 0.47 0.48 0.48 0.47 0.46 0.43 0.42 0.42 0.42 0.42 0.43 0.45 0.45 0.45 0.46 0.47 0.47 0.48 0.48 0.48 0.48 0.49 0.49 0.49 0.49 0.48 0.47 0.46 0.45 0.44 0.42 0.39 0.40 0.40 0.38 0.35 0.34 0.34 0.34 0.34 0.32 0.32 0.30 0.29 0.28 0.28 0.29 0.30 0.31 0.32 0.33 0.32 0.31 0.30 0.29 0.28 0.27 0.26 0.27 0.28 0.28 0.29 0.30 0.30 0.31 0.31 0.31 0.32 0.33 0.34 0.35 0.35 0.37 0.38 0.39 0.40 0.41 0.42
Wind_Speed
12 13 14 14 14 13 12 12 12 12 11 11 11 11 10 10 9 9 8 8 9 10 10 10 9 9 9 8 8 8 7 7 7 6 6 6 6 6 6 6 6 6 6 6 6 6 6 5 5 5 6 6 6 6 6 6 6 6 6 7 7 7 8 8 7 8 8 9 9 9 9 9 9 10 10 11 11 12 12 12 12 13 13 14 14
12 13 14 14 14 13 12 12 12 12 12 12 12 11 11 10 10 10 10 10 10 11 11 11 11 10 10 10 10 10 9 9 9 8 8 8 8 8 8 8 8 8 8 8 7 7 7 7 7 7 7 7 7 7 7 7 7 7 7 7 7 7 8 8 8 8 9 9 10 10 10 10 11 11 12 12 13 13 13 13 14 14 14 15 15
12 13 13 13 13 13 13 13 13 13 12 12 12 12 12 12 11 11 11 11 11 11 12 12 12 12 11 11 11 11 11 11 11 11 10 10 10 10 10 9 9 9 9 9 9 9 9 9 9 9 9 8 8 8 8 8 8 8 7 7 7 8 8 9 9 9 9 10 10 11 11 12 12 12 13 13 14 14 14 15 15 15 15 16 16
12 12 12 12 13 13 13 13 13 13 13 13 13 13 13 13 13 13 12 12 12 12 13 13 14 13 13 13 13 13 12 12 12 12 12 12 12 11 11 11 11 11 11 10 10 10 10 10 10 9 9 9 9 9 9 9 9 9 8 8 8 8 9 9 9 10 10 11 11 12 12 13 13 14 14 15 15 15 16 16 17 17 17 17 17
12 12 12 12 13 13 13 13 14 14 14 14 14 14 14 14 14 14 14 14 14 14 14 14 15 15 14 14 15 14 14 13 13 13 13 13 13 13 13 13 12 12 12 12 12 11 11 11 11 11 11 11 11 11 10 10 10 10 10 10 10 10 10 10 11 11 11 12 12 13 13 14 14 15 16 16 16 17 17 18 18 19 19 20 20
12 12 12 13 13 13 13 13 14 14 14 14 15 15 15 15 15 16 16 16 16 16 15 16 16 16 16 16 16 16 16 16 16 15 15 14 15 15 15 15 15 15 14 14 14 13 13 12 12 12 12 12 12 12 12 12 12 12 12 12 12 12 12 12 12 13 13 13 14 14 15 15 15 16 17 17 18 18 18 19 20 20 21 21 22
12 12 13 13 14 14 14 15 15 15 15 15 16 16 16 16 17 17 17 18 18 18 18 18 18 18 18 18 18 18 18 19 19 18 17 17 17 17 17 16 16 16 16 15 15 15 14 14 14 14 14 14 14 13 13 13 13 13 13 13 13 14 14 14 15 15 15 16 16 16 16 17 17 18 18 19 19 19 20 21 22 21 22 23 23
12 13 13 14 15 15 15 16 16 16 17 17 17 18 19 18 18 19 19 19 19 19 20 20 20 20 20 20 20 20 20 20 20 20 20 19 18 18 18 17 16 16 16 16 16 16 16 16 16 16 16 15 15 15 16 16 15 15 14 15 15 16 16 17 17 18 18 18 18 18 18 19 19 19 20 20 20 21 22 23 23 23 23 24 24
13 13 14 14 15 15 16 16 17 17 18 18 19 19 20 21 20 20 20 21 21 21 22 22 22 22 22 22 22 22 21 21 21 21 21 20 20 19 18 18 17 17 17 17 17 17 17 17 18 18 18 17 18 18 18 18 18 18 18 17 18 18 18 19 19 20 19 20 20 20 20 21 21 21 21 22 22 23 23 24 24 24 25 25 25
13 14 14 15 15 16 16 17 17 18 19 19 19 20 20 21 21 22 22 22 22 23 23 24 24 24 24 24 24 23 23 23 23 23 22 22 21 20 19 19 18 18 18 18 18 18 19 19 19 20 20 20 21 21 20 20 21 21 20 20 20 20 20 21 21 21 21 22 22 22 23 24 23 22 23 23 24 24 25 25 26 26 26 26 26
14 15 15 16 16 17 17 18 18 19 19 20 20 21 21 21 22 22 23 23 24 25 25 25 25 25 25 25 25 25 25 24 24 24 24 23 22 21 20 20 20 20 20 20 20 20 20 20 21 21 22 22 23 23 23 23 23 23 23 23 23 23 23 23 23 23 24 24 24 24 24 25 25 25 25 25 26 26 27 28 28 27 27 28 28
16 17 17 18 18 18 19 19 20 20 21 21 21 22 22 22 22 23 24 25 26 26 26 27 27 26 26 26 26 26 25 25 24 23 23 23 23 22 21 21 20 20 21 21 21 21 21 22 22 22 22 23 23 23 24 24 24 24 24 24 24 25 25 25 25 25 25 26 26 26 26 26 27 26 26 27 28 29 29 29 29 29 29 30 30
17 18 18 19 19 20 20 21 21 22 22 22 22 22 23 23 23 24 24 25 26 26 26 26 26 26 26 26 26 26 26 24 23 22 22 22 22 22 21 21 21 21 21 21 22 22 22 22 22 22 22 23 23 23 24 24 24 24 24 25 25 25 25 25 26 26 27 27 27 27 27 28 28 28 28 29 30 31 31 31 31 32 32 33 33
19 19 20 20 20 21 21 22 22 23 23 23 24 24 24 24 24 25 25 26 26 27 27 27 27 27 27 27 26 26 25 23 22 22 21 21 21 21 21 21 21 22 22 22 23 23 23 23 23 23 23 23 24 24 24 24 24 24 25 25 26 26 26 26 27 27 27 27 28 28 28 28 29 29 29 30 31 32 33 33 34 35 35 36 36
21 21 21 22 22 22 23 23 24 24 24 24 24 24 24 25 25 25 26 26 26 27 27 27 27 27 26 25 24 24 23 22 21 21 21 21 21 21 22 22 22 23 23 23 23 23 23 24 24 24 24 24 24 24 24 24 24 24 24 25 26 26 27 27 28 28 28 28 29 29 29 29 30 30 31 32 33 34 34 35 36 37 37 37 37
23 23 23 23 24 24 24 24 24 24 24 24 24 25 25 25 25 25 25 25 25 26 26 26 26 25 24 22 22 22 21 21 21 22 22 22 23 23 23 23 23 23 23 23 23 23 23 23 24 24 24 23 23 24 24 24 24 25 25 25 26 27 28 28 28 29 29 29 30 30 30 31 32 32 33 34 34 35 35 36 37 36 37 37 37
24 24 25 25 25 25 25 25 26 26 26 25 25 26 26 26 26 26 26 26 25 25 25 26 25 25 23 22 22 22 22 22 23 23 24 24 24 24 24 24 24 23 23 23 23 23 23 23 23 23 23 23 23 24 24 25 25 25 26 26 27 28 28 29 29 30 30 30 31 32 32 33 33 34 35 35 35 36 36 36 36 36 37 37 38
26 27 27 27 27 28 28 28 28 28 28 28 28 28 28 27 27 27 27 26 26 25 25 25 25 25 25 25 25 25 25 25 25 25 25 25 25 24 24 23 23 23 23 23 23 23 22 22 23 22 23 23 23 23 24 25 25 26 26 27 28 28 29 29 30 30 31 31 32 33 33 34 35 35 36 36 36 36 36 37 37 37 37 38 38
30 30 30 30 31 31 31 31 31 31 31 31 31 30 30 29 28 28 28 28 27 27 26 26 26 26 26 27 27 26 26 25 25 25 25 25 25 24 24 24 24 23 23 23 23 23 23 23 23 23 23 23 23 24 25 25 26 26 27 27 28 29 29 29 30 30 31 32 32 33 34 35 35 36 36 36 36 37 37 37 37 37 37 38 38
33 33 33 33 33 33 33 33 33 33 33 33 32 32 31 31 30 30 30 30 30 29 28 27 27 26 26 26 26 26 25 25 25 25 25 26 26 25 25 25 25 25 25 24 24 24 24 24 24 24 23 24 24 24 25 25 26 26 27 28 28 29 29 30 30 31 32 32 33 34 35 35 36 36 36 36 36 37 37 37 37 36 37 38 38
35 35 35 35 35 35 34 34 34 34 34 34 33 33 33 32 32 32 32 31 31 30 30 29 28 28 27 27 27 27 26 26 26 26 26 26 27 27 27 27 27 27 26 26 25 25 25 25 24 24 24 24 24 24 25 26 27 27 28 28 29 29 30 31 31 32 33 33 34 34 34 35 35 35 35 35 35 36 36 36 36 36 37 38 39
37 37 37 37 36 36 36 36 36 35 35 35 34 34 34 33 33 33 32 32 32 31 31 30 30 30 29 28 28 28 28 28 28 28 28 28 29 29 29 29 28 28 28 27 26 26 25 25 25 24 24 24 25 25 26 27 27 28 29 29 30 30 31 32 32 33 33 33 33 34 34 34 34 34 34 35 35 35 36 36 36 37 38 38 39
39 39 39 39 39 39 39 39 38 37 37 37 37 36 35 35 34 34 33 33 33 33 32 32 32 32 32 31 31 30 30 30 30 30 30 30 30 30 30 29 29 29 28 27 26 26 26 25 25 25 25 26 26 27 27 28 28 29 29 29 30 31 32 32 32 33 33 33 33 34 34 34 34 34 34 34 35 35 36 36 37 38 38 39 40
41 42 42 42 42 42 42 41 41 40 39 39 39 39 38 38 37 36 35 35 34 34 34 33 33 34 34 33 33 32 32 32 32 32 32 32 31 31 30 29 29 28 28 27 27 27 27 27 27 26 26 26 27 27 28 28 28 29 29 30 30 31 31 32 32 32 33 33 33 33 33 33 33 34 34 34 35 37 37 37 37 38 38 39 40
44 44 44 44 44 44 44 44 43 43 42 42 41 40 40 39 39 38 38 37 36 36 35 34 34 34 34 33 33 33 33 33 33 33 32 32 31 30 30 29 28 28 28 28 28 28 27 27 27 26 26 26 27 28 28 28 28 29 29 30 30 30 31 31 32 32 32 32 32 32 32 32 32 33 34 34 35 36 36 36 36 37 37 38 39
46 46 47 47 47 46 46 46 46 45 45 44 43 43 42 41 40 40 40 39 39 38 36 36 35 35 34 34 34 34 34 33 34 34 33 32 31 30 29 28 28 28 28 28 28 27 27 27 27 27 27 27 28 28 29 29 29 29 29 30 30 30 30 31 31 31 31 31 31 31 31 32 32 33 33 34 34 34 34 35 35 36 36 37 37
46 47 47 47 47 47 47 47 47 46 46 45 45 44 44 43 42 42 41 41 40 40 38 37 37 36 35 35 35 35 34 33 33 33 32 31 30 29 29 29 29 29 29 29 28 28 28 28 28 28 28 28 29 29 29 29 29 29 29 30 30 30 30 30 30 30 30 30 30 30 31 31 32 32 32 32 33 33 34 34 34 35 35 35 35
44 45 45 45 45 46 46 46 46 47 47 47 46 46 45 45 44 44 43 43 42 42 41 39 38 38 37 36 35 34 34 33 33 33 32 31 30 30 29 29 29 29 29 29 29 29 29 29 29 29 29 29 29 29 29 29 29 29 29 29 29 29 29 29 29 28 28 29 29 29 30 30 31 31 31 31 32 32 33 33 34 34 34 34 34
42 42 43 43 44 44 44 45 45 45 46 46 46 46 46 45 45 45 45 44 43 43 42 41 40 39 38 37 36 35 35 34 33 33 32 32 31 31 30 30 30 30 30 30 29 30 30 30 30 30 30 30 30 29 29 29 29 29 29 29 28 28 28 27 27 27 27 28 28 28 28 29 29 29 30 30 31 32 32 32 33 33 33 33 32
40 40 40 41 41 42 42 42 43 43 44 44 45 45 45 45 46 46 46 45 44 43 43 42 41 40 39 38 36 35 35 34 33 33 32 32 32 31 31 31 30 30 30 30 29 29 30 30 31 30 30 30 29 28 28 28 28 28 28 27 27 26 26 26 26 26 26 26 26 26 27 27 28 29 29 30 30 31 31 31 31 31 31 30 29
36 37 37 38 38 39 40 40 41 41 42 43 43 43 43 44 44 45 45 45 44 44 43 42 41 40 39 38 37 36 35 34 33 33 33 32 32 31 31 31 30 30 30 30 29 29 30 30 30 29 29 28 28 28 28 27 27 27 26 25 25 24 24 24 24 24 24 24 24 25 26 26 27 28 28 29 30 30 30 29 29 28 27 26 25
33 34 34 35 36 37 38 38 39 40 40 41 42 42 42 42 42 42 43 43 43 43 42 42 41 39 39 38 37 36 35 34 33 33 32 32 32 31 31 31 30 30 29 29 29 29 29 28 28 28 27 27 27 27 27 26 25 24 24 23 22 22 22 22 22 22 22 22 23 24 25 25 26 27 27 28 28 28 27 26 25 24 23 22 22
32 32 33 34 34 35 35 36 37 37 38 39 40 40 40 40 40 39 40 40 41 41 41 40 40 39 38 37 36 35 34 33 32 31 31 31 31 30 30 29 28 28 28 28 27 27 27 26 26 26 26 26 25 25 24 23 22 22 21 21 20 20 19 20 20 20 20 21 22 23 24 25 25 26 26 26 25 24 23 22 21 20 20 20 20
29 29 29 30 31 32 33 33 34 35 35 36 37 38 38 38 38 38 37 37 38 39 39 39 38 37 36 35 34 33 32 31 30 29 29 28 28 27 26 25 25 25 25 25 24 24 24 24 24 24 24 23 23 22 21 20 19 19 18 18 18 17 17 18 18 18 19 20 21 22 23 24 24 25 24 23 22 21 20 19 19 18 18 19 19
25 25 26 27 28 29 30 30 31 31 32 33 34 35 36 35 35 35 35 35 35 36 36 37 37 37 35 33 31 30 31 30 29 28 27 26 25 24 23 22 22 22 22 22 21 21 21 21 21 21 21 20 20 19 18 18 17 17 16 16 15 16 16 16 16 16 18 19 20 21 22 23 23 23 22 21 19 18 17 17 17 17 18 19 19
23 24 25 26 27 27 28 28 29 29 29 30 30 31 33 33 32 32 32 32 32 31 32 33 34 35 35 33 31 30 30 29 28 28 27 25 24 23 22 22 21 21 20 19 18 18 18 18 18 18 18 18 17 17 16 16 15 15 14 14 14 14 14 14 14 15 16 18 19 20 21 22 22 21 20 18 17 16 16 16 17 17 18 18 19
22 23 25 26 27 27 27 28 28 27 28 28 27 28 29 30 29 28 28 29 29 29 29 30 31 31 32 33 33 32 31 30 29 28 27 26 25 23 23 23 21 20 19 18 17 17 16 16 16 16 16 16 15 15 14 14 13 13 13 12 12 12 12 12 13 14 15 17 18 20 21 21 20 19 17 16 16 15 16 16 17 17 17 17 17
21 23 24 25 26 26 26 26 25 25 25 25 26 26 26 27 26 26 25 25 26 27 27 27 28 28 29 30 32 32 32 30 29 28 26 25 24 23 23 23 22 20 19 18 17 16 16 15 16 15 15 14 14 13 13 13 12 12 11 11 10 10 10 11 12 13 14 16 18 19 20 20 19 17 16 15 15 15 15 16 16 16 16 15 15
20 22 23 23 23 21 20 20 20 20 21 22 23 24 24 25 24 24 23 22 23 24 25 25 26 26 26 27 29 30 30 28 27 27 26 25 24 23 22 21 21 20 19 19 17 16 16 15 15 14 14 13 13 12 12 12 11 10 10 9 9 9 9 10 10 12 14 16 17 19 19 19 17 15 15 14 14 14 15 15 15 15 14 14 14
20 21 21 21 19 16 14 14 15 16 17 18 20 21 22 23 22 21 20 19 19 21 23 24 24 24 24 25 26 26 26 25 25 25 24 24 23 22 20 20 19 19 19 18 17 16 15 15 14 13 13 13 12 12 11 11 10 9 8 8 8 8 8 9 10 12 13 15 17 18 19 18 17 15 14 13 13 14 15 15 14 14 13 13 13
20 21 20 19 17 14 11 10 11 12 13 15 17 18 20 21 20 19 18 17 16 18 20 22 23 23 23 23 24 24 23 22 22 22 22 22 21 20 19 18 18 18 17 17 16 15 14 14 13 13 12 12 11 11 10 9 8 8 8 7 7 7 7 8 10 11 13 15 16 17 18 18 17 16 14 13 14 14 14 14 13 13 13 13 13
18 20 20 19 16 14 11 8 7 8 9 11 14 16 18 19 18 17 16 15 15 15 17 18 20 22 22 22 23 23 23 22 21 20 19 20 19 18 17 17 17 16 16 16 15 14 13 13 12 12 12 11 10 9 9 8 8 7 7 6 6 6 7 8 9 10 12 14 15 16 17 17 17 16 15 14 14 14 14 13 13 13 13 13 13
17 18 19 19 17 15 12 9 5 2 4 7 11 14 16 17 16 15 15 14 14 14 14 15 17 19 21 21 22 22 23 23 22 21 20 19 19 17 16 16 16 15 15 14 13 13 13 12 12 11 11 11 10 9 8 8 7 7 6 6 6 6 7 8 8 10 11 13 14 16 16 16 16 17 16 15 14 14 13 13 13 13 13 13 13
16 17 18 18 18 16 14 11 8 4 3 6 9 11 13 14 14 14 13 13 12 12 13 14 15 16 18 20 21 21 22 23 23 22 21 20 18 16 15 15 15 14 14 13 13 12 12 12 11 11 11 10 9 8 8 7 7 6 6 5 5 6 6 7 8 9 11 12 14 15 16 16 16 16 16 15 15 14 13 13 13 13 13 13 13
15 15 16 17 18 17 15 13 11 8 6 7 8 10 11 12 12 13 12 12 12 11 11 12 13 14 15 17 18 20 21 22 22 22 22 20 17 16 15 14 14 13 13 12 12 12 12 11 11 11 11 10 9 9 8 7 7 6 6 5 5 5 6 7 8 9 10 12 13 14 15 15 16 16 16 16 15 15 14 13 13 13 13 13 13
14 15 15 16 16 17 16 14 12 10 8 7 8 9 9 10 11 11 11 11 11 11 10 10 11 12 14 15 16 18 19 21 21 21 20 19 17 16 15 14 13 13 12 12 12 12 11 11 11 11 10 10 9 8 8 7 7 6 6 5 5 5 6 6 8 9 10 11 13 14 14 15 15 16 16 16 16 15 15 14 14 14 14 14 13
14 15 15 15 15 15 15 14 13 12 10 8 7 8 8 9 10 10 9 9 9 10 10 10 11 12 13 14 15 16 17 19 19 18 18 18 17 16 14 13 12 12 12 11 12 12 12 11 11 11 10 9 9 8 8 8 7 7 6 5 5 5 6 7 8 8 9 11 12 13 14 14 15 16 16 16 16 16 16 16 15 15 14 14 13
14 15 15 15 15 15 15 14 13 13 12 11 9 8 9 9 9 9 8 8 8 9 9 9 11 12 13 13 14 15 16 17 17 18 18 17 16 15 13 12 12 12 12 12 12 12 12 12 11 11 10 9 9 9 8 8 7 7 6 6 6 6 6 7 8 8 9 10 12 13 13 14 15 15 16 16 16 16 16 16 16 16 15 14 14
14 14 14 15 15 15 15 14 13 13 13 12 12 11 11 10 10 10 10 9 9 10 10 10 11 12 13 13 14 15 16 16 17 17 16 16 15 13 12 12 12 12 12 12 12 12 12 11 11 10 10 9 9 9 8 8 7 7 6 6 6 6 7 8 8 9 9 10 11 12 13 13 14 15 15 15 16 16 17 17 17 16 16 15 14
14 15 14 14 14 14 14 14 14 14 13 13 13 14 13 13 12 12 11 11 11 11 12 12 12 12 13 13 14 14 14 15 15 15 14 14 13 12 12 12 12 12 12 12 12 12 12 11 10 10 9 9 9 9 8 8 7 7 7 7 7 7 8 8 9 9 9 10 11 11 12 13 14 14 15 15 16 16 17 17 17 17 16 16 15
13 14 15 15 14 14 13 13 13 13 13 13 13 13 13 12 12 11 11 11 11 11 11 11 11 12 12 12 13 13 13 13 13 13 13 12 12 12 12 12 12 12 12 12 12 12 11 10 10 10 10 10 9 9 8 8 7 7 7 7 7 8 8 8 9 9 10 10 10 11 12 13 14 14 14 15 15 16 16 16 17 16 16 16 15
Wind_Direction
228 226 228 230 233 236 238 238 238 240 243 245 245 245 247 249 250 249 247 243 234 229 230 233 236 238 240 243 245 248 250 250 250 251 252 254 258 260 262 264 267 267 266 268 271 273 273 273 275 275 274 272 269 270 270 269 272 273 274 274 273 273 275 274 270 269 273 276 277 279 281 282 283 285 285 286 286 286 286 286 287 286 284 284 285
232 228 229 231 233 237 240 241 241 241 243 244 243 242 244 247 247 247 247 245 241 236 234 235 238 240 241 243 246 249 252 254 256 258 258 258 259 260 261 261 263 265 265 267 268 268 268 268 269 270 270 270 269 269 269 270 271 272 273 274 275 277 279 276 272 271 274 277 279 281 284 283 283 284 285 285 286 286 285 286 287 287 287 286 284
233 230 230 233 236 240 243 243 242 242 243 243 242 240 241 243 245 245 246 246 244 241 238 238 240 242 243 244 246 249 252 255 258 259 260 261 261 262 261 260 261 261 262 266 267 267 269 269 269 268 268 268 268 268 268 269 271 270 271 275 276 278 280 279 278 276 275 278 279 279 283 285 283 283 285 285 286 286 285 286 287 287 288 287 285
232 231 232 235 238 241 244 245 244 244 244 243 241 239 239 242 244 244 244 246 246 245 242 241 242 244 246 246 247 249 252 254 258 260 260 261 260 261 261 261 261 260 259 261 264 266 269 269 269 268 268 268 268 269 269 268 269 269 270 272 274 277 280 280 280 279 277 278 280 280 282 283 283 284 285 285 285 286 285 286 286 286 287 288 286
233 233 234 236 239 242 245 246 245 245 244 243 241 239 239 241 243 244 245 247 247 246 245 244 245 247 247 248 248 250 252 254 257 260 261 261 260 260 261 261 261 260 259 260 261 263 265 266 267 267 268 269 269 270 269 268 268 269 270 271 272 275 278 280 280 280 279 280 281 283 283 283 282 285 286 285 285 285 285 286 285 285 286 288 287
235 236 237 238 241 244 245 246 246 244 244 245 243 241 241 242 243 244 246 248 249 249 247 246 248 248 249 250 250 251 253 254 256 258 260 260 261 261 262 263 262 262 261 260 260 260 261 262 264 265 265 267 269 270 270 270 271 273 272 272 273 275 277 278 279 279 280 280 281 282 283 283 283 284 286 288 287 285 286 287 285 284 285 287 287
240 240 241 242 245 246 247 246 246 245 246 247 247 245 245 246 246 247 247 248 250 250 249 248 250 251 252 253 254 255 255 254 254 256 258 260 262 263 263 264 263 262 261 259 259 259 260 261 263 264 264 265 265 266 267 269 274 276 274 273 275 277 278 279 279 280 280 280 281 281 281 282 283 284 286 288 287 285 287 289 287 285 285 287 287
247 247 247 247 248 249 249 249 248 249 249 250 250 250 249 250 250 249 248 249 251 252 251 250 251 253 254 256 257 258 257 255 254 255 257 260 262 262 262 262 262 260 260 259 258 259 260 262 264 264 264 263 264 265 267 269 271 271 270 273 277 278 279 280 281 281 281 280 280 280 280 280 281 283 285 286 286 286 288 289 289 287 287 287 286
250 251 252 252 252 251 251 251 251 251 251 253 254 254 254 253 252 250 249 249 251 253 253 253 254 255 256 257 258 257 257 257 256 258 259 259 259 259 259 260 260 260 260 259 258 260 261 263 264 263 263 265 267 268 270 270 269 267 268 272 275 276 278 279 280 280 280 281 281 281 281 281 282 284 285 285 287 288 288 289 288 287 287 287 286
252 254 255 256 256 256 255 254 253 253 254 255 256 257 257 256 254 252 251 252 253 254 254 255 256 257 258 258 258 257 258 258 258 260 260 257 256 256 257 259 260 261 262 261 262 263 264 265 266 265 265 267 269 270 270 270 269 268 269 271 272 275 277 278 278 279 280 280 281 281 283 283 283 285 286 286 287 288 288 288 288 287 287 286 286
258 259 260 260 261 260 260 259 258 258 259 259 259 260 260 258 257 255 255 254 255 256 257 257 257 258 258 258 258 257 258 259 259 259 257 253 252 254 257 259 261 262 263 264 265 266 266 267 268 268 269 269 270 270 269 269 268 269 269 271 272 274 275 276 277 278 279 280 280 280 282 283 283 284 284 285 286 287 287 287 286 286 286 286 286
263 264 264 264 264 263 263 263 262 262 262 262 262 262 261 261 260 259 258 257 257 258 258 259 259 258 258 258 258 258 258 257 256 255 252 249 250 252 255 258 260 262 265 266 268 268 269 269 270 270 271 271 271 271 270 269 269 269 270 271 273 274 275 276 276 277 279 279 279 280 281 283 283 283 282 285 286 286 287 286 284 284 284 284 284
266 267 266 266 266 266 266 265 265 265 264 264 264 264 264 263 262 261 261 261 261 261 261 260 259 259 259 259 258 257 256 255 253 252 249 247 248 251 254 257 260 263 265 267 269 270 271 271 271 272 272 272 272 272 271 270 270 270 271 272 273 275 276 278 278 279 280 280 280 280 281 282 283 282 283 285 286 286 286 285 283 283 283 283 283
268 268 268 267 267 267 267 267 267 267 266 265 265 265 264 263 262 262 263 262 262 262 263 262 261 261 261 260 257 255 253 252 251 250 248 246 248 252 255 258 262 264 266 268 270 271 271 272 272 272 273 273 273 272 272 272 271 271 271 272 273 275 276 278 279 280 281 281 280 281 281 282 283 283 284 285 285 285 285 284 284 284 283 283 283
269 269 269 269 269 268 268 268 268 267 267 266 266 265 264 263 263 264 263 262 262 262 262 262 261 261 260 257 253 250 248 248 248 248 247 248 250 255 258 260 262 264 266 267 269 270 270 271 272 271 272 272 272 272 272 272 271 271 272 273 273 275 276 278 279 281 281 281 281 281 282 282 283 284 285 285 285 285 284 284 284 284 284 284 283
271 272 271 271 271 270 270 269 268 267 266 266 266 265 264 264 264 264 263 262 261 261 262 262 260 258 255 250 246 245 246 247 248 248 248 250 253 258 260 261 261 263 264 265 267 268 269 270 271 271 270 271 272 272 272 272 271 271 272 273 274 275 276 278 280 281 282 281 282 282 283 283 284 284 285 285 285 285 285 285 284 284 283 283 283
273 273 273 272 272 271 271 270 268 267 266 266 265 264 264 263 263 263 261 261 260 260 260 260 257 254 250 246 245 246 248 249 250 251 251 252 255 258 259 259 260 261 262 264 266 267 269 271 271 270 271 272 273 273 273 272 272 272 273 274 275 276 277 278 280 281 282 282 282 283 283 284 284 284 284 284 285 285 285 285 284 284 283 283 283
273 273 273 273 272 272 271 270 269 268 267 267 266 265 264 263 262 261 260 259 259 259 259 258 256 253 250 249 250 250 250 251 252 253 253 254 255 256 257 258 258 259 261 263 265 267 269 271 272 272 272 273 274 274 274 273 273 273 274 275 276 277 278 279 280 281 282 282 282 283 283 284 284 284 284 284 284 285 285 285 285 284 283 283 283
273 273 273 272 272 271 270 269 269 268 268 267 266 265 263 261 260 259 259 259 259 259 258 257 255 253 252 251 252 252 251 252 252 252 252 252 254 255 257 257 257 259 261 263 265 267 269 271 272 273 274 275 276 276 275 275 275 275 276 277 278 279 280 280 281 282 282 283 284 284 284 284 285 285 284 284 284 285 285 285 285 285 284 283 284
274 273 273 272 271 271 270 269 268 268 268 267 266 264 262 261 260 259 259 260 259 258 257 256 254 253 251 251 251 251 251 251 251 251 251 252 254 256 258 258 259 261 262 264 265 267 267 269 271 272 274 276 277 277 276 277 278 278 278 279 279 280 281 282 283 284 284 285 285 285 286 286 285 286 286 285 285 285 285 285 284 284 284 284 284
274 273 273 272 271 271 270 269 268 267 267 267 265 263 262 261 260 259 259 259 257 256 255 253 252 252 251 251 251 251 251 251 251 252 253 254 255 257 259 260 261 262 263 264 265 265 266 268 269 271 274 276 277 277 278 279 280 279 279 280 281 282 282 283 283 284 285 285 286 286 286 286 286 286 286 285 285 285 285 284 284 284 284 284 284
273 272 272 271 271 270 269 269 268 267 266 265 265 264 262 261 260 259 258 257 256 254 253 252 252 251 251 252 252 251 252 253 254 254 255 256 257 259 260 261 261 262 263 263 263 263 264 266 268 270 273 275 276 277 278 280 280 279 280 281 282 283 283 283 284 285 285 286 286 286 287 286 286 286 286 286 286 285 285 285 285 284 284 284 284
273 272 272 271 271 270 269 269 267 266 265 264 264 263 262 261 259 258 257 256 255 254 253 253 252 251 251 252 253 252 253 254 255 255 256 257 258 259 260 261 261 261 260 260 260 262 263 265 266 269 272 274 275 277 279 280 279 279 280 281 282 283 283 284 285 286 286 286 286 287 286 286 286 287 286 286 286 286 286 286 286 285 285 285 284
273 272 272 271 271 270 269 268 267 266 265 264 263 262 262 261 259 257 256 255 254 253 253 253 252 252 251 251 252 252 252 253 255 256 257 258 259 259 259 259 259 259 258 259 260 262 264 265 267 269 271 272 275 278 280 280 280 280 281 282 282 284 285 285 286 286 287 287 286 286 287 287 287 287 287 287 287 287 287 287 287 286 286 286 286
272 272 272 271 270 269 268 267 266 266 265 263 262 261 261 260 258 256 255 254 253 252 252 252 252 252 251 250 251 252 253 254 255 256 257 258 259 258 257 257 258 258 258 259 260 263 264 265 266 268 269 271 275 278 280 281 281 281 282 283 284 285 286 287 287 287 287 286 286 287 287 287 287 287 287 288 288 288 288 288 288 288 287 287 287
272 272 271 270 269 268 267 266 266 265 264 263 261 260 260 258 257 256 255 253 252 251 251 251 252 251 250 250 252 253 253 254 255 254 254 254 255 255 255 255 256 257 258 259 260 263 264 265 266 268 269 272 275 278 279 280 281 281 282 283 285 286 287 288 288 287 287 287 287 287 287 287 288 288 289 289 289 289 289 289 289 289 289 289 289
273 272 272 271 269 268 267 266 264 263 262 262 261 259 258 257 256 255 254 253 252 251 251 250 250 251 251 252 252 251 251 252 252 251 250 250 251 252 253 254 254 255 256 258 260 262 264 265 267 269 271 274 276 277 278 279 279 280 282 284 285 287 288 289 289 288 287 288 288 288 288 288 289 289 289 290 290 290 290 290 290 290 291 291 290
274 273 272 271 270 268 267 266 264 263 262 260 259 258 257 256 254 253 253 252 251 251 250 250 249 250 251 251 250 249 249 250 250 250 250 250 251 253 254 254 255 256 257 258 261 263 264 266 268 270 272 274 276 277 277 278 279 281 282 284 285 286 287 289 289 288 288 289 289 289 289 290 290 290 290 290 291 291 291 291 291 291 291 291 291
275 274 273 272 270 269 267 266 264 263 261 260 258 257 256 254 253 253 252 252 251 251 250 249 250 249 250 250 250 250 249 249 248 248 249 250 251 253 254 255 257 258 259 260 262 265 266 267 269 271 272 274 275 276 277 278 280 281 283 284 284 285 287 288 288 288 290 290 290 290 290 291 291 291 291 292 292 293 293 293 292 292 292 292 292
276 275 273 272 271 269 268 266 264 262 261 259 258 257 255 254 253 252 251 251 251 250 249 249 249 248 248 250 251 250 249 248 247 247 248 249 250 252 254 256 257 258 259 260 262 265 267 268 269 271 272 274 275 276 277 278 279 280 282 283 284 285 287 288 288 290 291 291 291 291 291 291 291 292 293 293 294 294 294 294 293 293 293 292 292
277 275 274 273 271 270 268 267 265 263 261 259 257 256 255 254 253 252 250 250 250 249 248 247 246 246 246 248 249 248 247 247 246 247 248 248 250 252 254 255 256 257 258 260 263 265 267 267 268 270 271 273 274 275 276 277 278 279 280 282 282 284 286 287 289 291 292 291 292 292 293 293 293 294 295 296 296 296 295 295 294 293 293 292 291
279 278 277 275 274 272 270 267 266 264 262 259 257 256 255 254 253 251 249 248 248 247 246 245 245 245 244 245 246 246 245 246 246 247 248 248 249 251 253 254 255 256 257 260 263 264 265 266 267 269 270 272 273 274 275 275 276 277 279 280 281 283 285 287 289 292 292 292 293 294 295 295 296 297 297 298 297 297 296 295 294 293 292 292 291
281 281 279 278 276 274 272 269 266 264 261 259 256 255 254 253 252 250 248 247 245 245 244 243 243 242 242 242 244 244 243 244 245 245 245 246 247 249 251 253 254 255 257 260 262 262 263 264 265 267 269 270 271 272 272 273 274 276 277 279 280 282 285 287 290 292 293 294 295 296 297 298 299 300 300 300 299 298 297 296 296 294 293 293 293
285 284 282 280 278 275 273 270 267 264 261 258 255 253 252 251 250 249 247 245 243 242 241 240 239 239 239 240 241 240 239 240 240 240 241 242 244 246 249 252 254 256 258 260 260 260 261 262 264 266 267 268 269 269 269 270 272 274 275 277 279 281 285 289 291 293 295 297 299 300 301 302 303 303 303 302 301 299 299 298 297 295 294 295 296
291 290 288 286 282 278 275 271 267 264 261 258 255 251 249 248 248 247 246 244 242 240 239 237 236 236 236 235 234 233 234 235 236 236 236 238 239 241 245 249 252 254 256 258 258 259 260 261 262 264 266 266 265 265 266 267 269 271 273 275 278 282 287 290 292 295 298 301 303 304 306 307 307 307 306 304 302 301 300 298 297 296 297 298 300
299 297 295 292 287 282 277 273 269 264 259 257 254 250 246 244 244 243 243 243 240 238 236 234 233 233 233 231 230 229 230 231 232 233 234 236 238 240 244 247 249 251 252 254 257 258 259 260 262 263 264 262 261 261 262 263 266 268 271 274 278 282 287 290 294 299 303 306 308 310 312 312 311 310 307 305 302 301 301 300 299 299 300 301 303
305 303 301 297 292 285 278 274 271 265 258 254 252 248 243 240 239 239 240 239 238 236 234 233 231 231 231 230 229 229 230 230 232 233 235 237 239 241 244 246 247 248 248 250 253 256 258 259 261 261 260 257 255 256 259 261 264 266 269 273 277 281 285 290 297 304 309 311 314 317 317 317 315 312 309 306 304 304 305 305 304 303 303 304 306
313 311 308 304 298 290 280 273 269 265 257 251 248 245 240 235 234 234 236 236 235 233 232 230 228 228 228 227 227 227 227 228 229 231 232 235 238 241 244 244 244 244 245 247 251 255 257 259 259 258 255 252 251 254 257 259 261 263 267 271 273 277 284 292 300 307 312 317 320 322 322 322 319 315 311 308 307 307 308 309 308 307 307 308 310
323 320 317 314 309 299 286 274 267 263 256 247 242 240 236 231 228 228 231 232 231 229 228 226 224 223 223 222 223 224 223 223 224 227 229 232 236 240 241 241 241 241 242 244 248 253 256 257 255 252 249 248 249 252 253 254 256 259 262 265 268 275 285 295 304 311 317 322 326 327 328 327 324 319 316 313 310 310 312 312 311 310 309 310 313
335 333 330 327 322 314 299 281 270 263 254 244 238 234 228 224 222 222 225 227 227 225 224 222 220 219 219 219 219 220 220 220 222 225 227 229 232 234 235 236 237 237 238 240 245 250 252 252 249 246 244 245 246 246 246 248 251 253 256 259 266 275 286 297 307 316 322 327 331 333 335 334 331 326 322 318 315 315 316 315 314 313 312 312 316
346 346 345 341 337 330 318 297 279 266 253 242 233 226 219 215 214 216 218 220 220 219 218 216 215 215 216 215 213 212 213 214 217 220 223 226 227 227 228 230 231 231 234 237 241 245 246 244 241 240 240 240 239 238 239 242 244 247 251 257 265 275 287 299 309 319 326 331 335 338 340 340 338 333 329 324 320 319 319 318 316 315 314 314 317
355 357 358 357 354 349 341 325 298 272 251 233 222 214 208 206 206 208 210 212 213 212 212 212 212 213 214 213 211 211 213 214 215 216 218 221 220 220 222 225 227 228 231 234 237 239 240 237 235 234 232 230 230 229 231 234 238 243 248 254 262 274 288 301 312 321 329 334 338 341 343 344 343 341 336 330 324 322 322 322 320 317 315 315 316
1 4 6 9 10 9 7 4 352 303 230 208 202 198 196 196 199 201 203 205 206 206 207 208 210 211 213 213 214 215 217 217 216 214 213 214 215 216 220 223 224 226 227 229 232 235 234 230 227 225 223 222 222 222 224 230 235 239 244 249 260 276 291 302 313 323 331 337 340 343 345 347 348 347 343 338 332 327 326 326 323 320 318 318 318
7 10 13 16 18 21 24 29 36 58 123 160 173 179 183 186 189 191 194 197 199 202 206 208 208 208 210 213 215 216 216 213 211 210 210 210 213 216 218 219 219 220 222 225 228 229 225 221 218 217 215 215 215 217 222 229 233 235 239 248 264 280 293 304 315 325 333 338 342 344 347 349 351 351 350 347 342 336 331 328 326 325 323 322 321
13 16 20 23 24 27 31 37 46 64 97 129 148 161 170 176 180 183 187 190 192 196 202 205 205 206 208 208 209 210 207 203 202 203 205 207 209 210 210 211 213 217 220 222 222 220 216 213 211 210 209 210 213 218 224 228 229 230 236 251 270 284 294 306 318 327 333 339 342 345 347 349 352 353 354 353 349 344 339 334 331 329 327 324 323
18 20 23 26 28 31 35 40 47 59 79 109 133 149 160 167 173 178 182 186 190 192 195 199 203 203 201 198 196 195 194 193 194 198 201 202 202 202 204 208 214 218 218 216 214 212 210 207 206 206 208 211 215 220 224 225 225 229 238 254 272 287 299 311 320 327 333 338 341 344 347 349 351 353 355 355 352 350 346 342 337 334 331 328 326
22 24 26 28 30 34 38 43 50 58 70 87 112 135 149 156 163 169 173 180 188 192 193 194 192 188 183 182 184 186 189 190 193 195 196 196 198 201 206 212 215 215 212 209 208 207 206 204 204 206 209 213 217 221 222 221 223 230 240 253 270 288 303 312 319 325 331 336 339 343 345 348 350 353 354 354 353 352 350 348 344 341 338 333 330
27 29 32 33 35 37 41 45 52 60 69 79 94 113 129 140 149 156 161 166 172 174 175 175 174 173 173 176 180 183 185 187 189 190 192 194 198 202 207 210 211 210 207 205 204 203 203 204 206 208 211 215 218 220 219 220 224 232 241 252 268 287 302 311 316 321 327 333 337 341 343 346 348 350 351 351 352 353 353 352 349 347 344 340 336
32 34 35 37 39 42 46 50 55 62 70 77 87 97 109 120 130 137 139 140 143 146 149 152 157 161 165 169 173 175 178 181 184 188 191 194 197 201 205 207 208 206 204 202 202 202 202 204 207 210 212 215 217 217 218 222 228 236 246 257 269 285 299 308 311 316 322 328 334 338 341 344 346 347 347 348 351 353 354 355 353 351 348 346 342
38 38 39 41 44 47 51 55 60 65 70 76 84 91 98 104 111 118 123 126 128 131 135 141 147 151 155 160 165 169 173 178 183 186 190 193 197 202 205 205 204 202 201 200 200 201 202 204 207 209 211 214 215 216 220 226 233 241 251 261 271 284 296 304 308 311 317 323 329 334 338 342 344 345 346 348 350 351 353 355 355 354 351 349 346
40 41 42 45 48 51 54 58 61 65 69 76 84 91 97 102 106 111 117 122 126 130 134 139 145 150 154 159 165 171 176 180 184 187 191 195 200 203 204 202 200 200 199 199 198 199 201 204 206 209 212 214 215 219 225 232 239 248 256 263 272 283 294 302 305 308 313 317 322 328 334 338 341 343 345 347 349 350 350 352 354 355 353 352 350